Weather History for Homer, AK

Change the Weather History Date:

Sunday, May 18, 2014

  Actual Average Record
Temperature  
Mean Temperature 54 °F -  
Max Temperature 62 °F 50 °F 69 °F (2002)
Min Temperature 48 °F 37 °F 26 °F (1956)
Degree Days  
Heating Degree Days 10    
Growing Degree Days 4 (Base 50)    
Moisture  
Dew Point 36 °F    
Average Humidity 54    
Maximum Humidity 74    
Minimum Humidity 21    
Precipitation  
Precipitation 0.00 in - - ()
Sea Level Pressure  
Sea Level Pressure 29.81 in    
Wind  
Wind Speed 6 mph (WSW)    
Max Wind Speed 20 mph    
Max Gust Speed 29 mph    
Visibility 10 miles    
Events      
Averages and records for this station are not official NWS values.
T = Trace of Precipitation, MM = Missing Value Source: NWS Daily Summary

Daily Weather History Graph

Daily Weather History Graph

Search for Another Location

Airport:

Trip Planner

Search our weather history database for the weather conditions in past years. The results will help you decide how hot, cold, wet, or windy it might be!

Date:

Astronomy

May. 18, 2014 Rise Set
Actual Time 5:23 AM AKDT 10:42 PM AKDT
Civil Twilight 4:18 AM AKDT 11:48 PM AKDT
Nautical Twilight 2:34 AM AKDT 1:29 AM AKDT
Astronomical Twilight Sun does not rise Sun does not rise
Moon 1:37 AM AKDT (5/18) 9:39 AM AKDT (5/18)
Length of Visible Light 19h 29m
Length of Day
17h 19m
Waning Gibbous, 79% of the Moon is Illuminated
May 18
Waning Gibbous
May 21
Last Quarter
May 28
New
Jun 5
First Quarter
Jun 12
Full

Hourly Weather History & Observations

Time (AKDT) Temp. Dew Point Humidity Pressure Visibility Wind Dir Wind Speed Gust Speed Precip Events Conditions
12:53 AM 52.0 °F 43.0 °F 71% 29.88 in 10.0 mi Calm Calm - N/A   Clear
1:53 AM 53.1 °F 39.9 °F 61% 29.87 in 10.0 mi West 5.8 mph - N/A   Clear
2:53 AM 51.1 °F 39.9 °F 66% 29.87 in 10.0 mi Calm Calm - N/A   Clear
3:53 AM 48.9 °F 39.9 °F 71% 29.86 in 10.0 mi Calm Calm - N/A   Clear
4:53 AM 48.0 °F 39.0 °F 71% 29.85 in 10.0 mi SW 6.9 mph - N/A   Clear
5:53 AM 48.0 °F 39.9 °F 74% 29.85 in 10.0 mi West 3.5 mph - N/A   Mostly Cloudy
6:53 AM 48.0 °F 39.9 °F 74% 29.84 in 10.0 mi Calm Calm - N/A   Mostly Cloudy
7:53 AM 50.0 °F 41.0 °F 71% 29.83 in 10.0 mi Variable 4.6 mph - N/A   Mostly Cloudy
8:53 AM 53.1 °F 41.0 °F 64% 29.83 in 10.0 mi Calm Calm - N/A   Mostly Cloudy
9:53 AM 52.0 °F 41.0 °F 66% 29.83 in 10.0 mi Variable 3.5 mph - N/A   Scattered Clouds
10:53 AM 53.1 °F 42.1 °F 66% 29.83 in 10.0 mi SSW 5.8 mph - N/A   Scattered Clouds
11:53 AM 57.0 °F 41.0 °F 55% 29.82 in 10.0 mi South 3.5 mph - N/A   Scattered Clouds
12:53 PM 55.0 °F 41.0 °F 59% 29.80 in 10.0 mi SW 17.3 mph 24.2 mph N/A   Scattered Clouds
1:53 PM 55.9 °F 39.9 °F 55% 29.80 in 10.0 mi SW 18.4 mph - N/A   Clear
2:53 PM 55.9 °F 35.1 °F 45% 29.80 in 10.0 mi WSW 19.6 mph 26.5 mph N/A   Clear
3:53 PM 55.0 °F 37.0 °F 51% 29.78 in 10.0 mi WSW 16.1 mph 28.8 mph N/A   Clear
4:53 PM 55.9 °F 34.0 °F 44% 29.77 in 10.0 mi WSW 16.1 mph - N/A   Clear
5:53 PM 54.0 °F 37.0 °F 53% 29.75 in 10.0 mi WSW 12.7 mph - N/A   Clear
6:53 PM 61.0 °F 19.9 °F 21% 29.75 in 10.0 mi NNW 12.7 mph 18.4 mph N/A   Clear
7:53 PM 60.1 °F 21.9 °F 23% 29.75 in 10.0 mi WNW 11.5 mph 19.6 mph N/A   Clear
8:53 PM 57.9 °F 21.9 °F 25% 29.74 in 10.0 mi NW 13.8 mph 23.0 mph N/A   Clear
9:53 PM 55.9 °F 26.1 °F 32% 29.73 in 10.0 mi NNW 15.0 mph 25.3 mph N/A   Clear
10:53 PM 54.0 °F 26.1 °F 34% 29.74 in 10.0 mi North 6.9 mph - N/A   Mostly Cloudy
11:53 PM 53.1 °F 30.9 °F 43% 29.75 in 10.0 mi SE 3.5 mph - N/A   Overcast